RYR734J LEPA-EDDB

Flight info

Callsign RYR734J
Flight time 2h 7m
Altitude 38000
Route MEROS8B MEROS N853 LUMAS DCT MAXIR DCT LUSOL DCT BODRU DCT OKTET DCT IRMAR DCT KINES DCT VANAS DCT MOBLO DCT UBIMA DCT SOSAL DCT KORED DCT BERSU DCT DITON/N0433F370 DCT LOKTA DCT TEDGO DCT TIKNI T279 TAMEB T278 KLF KLF06L
Aircraft B738/M-SDE2E3FGHIRWXY/LB1

Departure

Time 2026-05-07 20:16
Airport Palma de Mallorca Airport (LEPA)

Arrival

Time 2026-05-07 22:23
Airport Berlin Brandenburg Airport (EDDB)
Time Latitude Longitude Altitude Speed Heading
2026-05-07 19:51 39.54986 2.73274 37 ft 0 kts 186°
2026-05-07 20:03 39.54993 2.73275 37 ft 2 kts 164°
2026-05-07 20:03 39.55008 2.73266 37 ft 2 kts 135°
2026-05-07 20:04 39.55018 2.73248 37 ft 2 kts 111°
2026-05-07 20:04 39.55022 2.73227 34 ft 2 kts 96°
2026-05-07 20:04 39.55023 2.73207 35 ft 2 kts 84°
2026-05-07 20:04 39.55022 2.73199 34 ft 0 kts 79°
2026-05-07 20:11 39.55025 2.73214 35 ft 7 kts 74°
2026-05-07 20:11 39.55037 2.73295 37 ft 13 kts 95°
2026-05-07 20:12 39.55053 2.73429 37 ft 18 kts 58°
2026-05-07 20:12 39.55118 2.73567 36 ft 17 kts 58°
2026-05-07 20:12 39.55177 2.73693 37 ft 16 kts 64°
2026-05-07 20:12 39.55115 2.73792 37 ft 16 kts 149°
2026-05-07 20:13 39.55014 2.73870 37 ft 17 kts 149°
2026-05-07 20:13 39.54913 2.73949 37 ft 16 kts 148°
2026-05-07 20:13 39.54820 2.73993 37 ft 14 kts 206°
2026-05-07 20:13 39.54745 2.73955 37 ft 12 kts 153°
2026-05-07 20:14 39.54675 2.73884 37 ft 20 kts 237°
2026-05-07 20:14 39.54594 2.73714 37 ft 20 kts 238°
2026-05-07 20:14 39.54554 2.73659 37 ft 3 kts 157°
2026-05-07 20:14 39.54506 2.73707 37 ft 14 kts 143°
2026-05-07 20:15 39.54429 2.73787 37 ft 11 kts 102°
2026-05-07 20:15 39.54464 2.73883 37 ft 17 kts 58°
2026-05-07 20:15 39.54660 2.74296 36 ft 100 kts 58°
2026-05-07 20:15 39.55163 2.75361 202 ft 166 kts 58°
2026-05-07 20:16 39.55783 2.76692 1195 ft 180 kts 58°
2026-05-07 20:16 39.56446 2.78074 2391 ft 179 kts 59°
2026-05-07 20:16 39.57128 2.79512 3313 ft 195 kts 60°
2026-05-07 20:16 39.57859 2.81099 3686 ft 215 kts 60°
2026-05-07 20:17 39.58641 2.82835 4119 ft 231 kts 60°
2026-05-07 20:17 39.59524 2.84726 4319 ft 261 kts 59°
2026-05-07 20:17 39.60520 2.86839 4734 ft 283 kts 59°
2026-05-07 20:17 39.61551 2.89031 5673 ft 285 kts 58°
2026-05-07 20:18 39.62572 2.91263 6622 ft 288 kts 61°
2026-05-07 20:18 39.63578 2.93516 7552 ft 290 kts 60°
2026-05-07 20:18 39.64595 2.95764 8440 ft 292 kts 60°
2026-05-07 20:18 39.65630 2.98056 9287 ft 298 kts 60°
2026-05-07 20:19 39.66685 3.00401 10136 ft 301 kts 60°
2026-05-07 20:19 39.67737 3.02712 11217 ft 292 kts 60°
2026-05-07 20:19 39.68743 3.04957 12361 ft 283 kts 61°
2026-05-07 20:19 39.69701 3.07155 13345 ft 283 kts 62°
2026-05-07 20:20 39.70690 3.09483 13592 ft 307 kts 63°
2026-05-07 20:20 39.71738 3.12021 13802 ft 331 kts 63°
2026-05-07 20:20 39.72857 3.14763 13975 ft 353 kts 63°
2026-05-07 20:20 39.74022 3.17628 14139 ft 373 kts 63°
2026-05-07 20:21 39.75261 3.20672 14446 ft 387 kts 63°
2026-05-07 20:21 39.76529 3.23789 14995 ft 392 kts 63°
2026-05-07 20:21 39.77860 3.26909 15624 ft 395 kts 58°
2026-05-07 20:21 39.79548 3.29758 15968 ft 400 kts 51°
2026-05-07 20:22 39.81386 3.32481 15981 ft 401 kts 49°
2026-05-07 20:22 39.83263 3.35166 15993 ft 400 kts 49°
2026-05-07 20:22 39.85146 3.37865 16239 ft 406 kts 49°
2026-05-07 20:22 39.87032 3.40605 16959 ft 406 kts 50°
2026-05-07 20:23 39.88907 3.43363 17658 ft 408 kts 50°
2026-05-07 20:23 39.90768 3.46132 18193 ft 413 kts 50°
2026-05-07 20:23 39.92666 3.48977 18668 ft 418 kts 50°
2026-05-07 20:23 39.94580 3.51859 19145 ft 423 kts 50°
2026-05-07 20:24 39.96517 3.54783 19631 ft 427 kts 51°
2026-05-07 20:24 39.98477 3.57746 20070 ft 432 kts 50°
2026-05-07 20:24 40.00426 3.60696 20518 ft 436 kts 50°
2026-05-07 20:24 40.02415 3.63711 20947 ft 441 kts 50°
2026-05-07 20:25 40.04432 3.66768 21372 ft 445 kts 50°
2026-05-07 20:25 40.06462 3.69848 21777 ft 450 kts 50°
2026-05-07 20:25 40.08520 3.72973 22171 ft 455 kts 50°
2026-05-07 20:25 40.10592 3.76123 22571 ft 459 kts 50°
2026-05-07 20:26 40.12684 3.79306 22958 ft 464 kts 50°
2026-05-07 20:26 40.14801 3.82530 23339 ft 468 kts 50°
2026-05-07 20:26 40.16910 3.85747 23690 ft 472 kts 50°
2026-05-07 20:26 40.19055 3.89021 24042 ft 475 kts 50°
2026-05-07 20:27 40.21206 3.92308 24408 ft 477 kts 50°
2026-05-07 20:27 40.23369 3.95618 24757 ft 480 kts 50°
2026-05-07 20:27 40.25545 3.98950 25093 ft 482 kts 50°
2026-05-07 20:27 40.27736 4.02309 25415 ft 485 kts 50°
2026-05-07 20:28 40.29931 4.05679 25748 ft 488 kts 50°
2026-05-07 20:28 40.32139 4.09071 26068 ft 490 kts 50°
2026-05-07 20:28 40.34354 4.12478 26384 ft 492 kts 50°
2026-05-07 20:28 40.36577 4.15902 26776 ft 493 kts 50°
2026-05-07 20:29 40.38799 4.19328 27243 ft 491 kts 50°
2026-05-07 20:29 40.41010 4.22740 27720 ft 490 kts 50°
2026-05-07 20:29 40.43216 4.26149 28141 ft 490 kts 50°
2026-05-07 20:29 40.45399 4.29526 28527 ft 491 kts 50°
2026-05-07 20:30 40.47610 4.32948 28949 ft 491 kts 50°
2026-05-07 20:30 40.50060 4.36080 29349 ft 492 kts 36°
2026-05-07 20:30 40.53050 4.38235 29773 ft 490 kts 19°
2026-05-07 20:30 40.56266 4.39705 30213 ft 488 kts 17°
2026-05-07 20:31 40.59497 4.41083 30546 ft 489 kts 16°
2026-05-07 20:31 40.62739 4.42441 30870 ft 489 kts 16°
2026-05-07 20:31 40.65985 4.43810 31220 ft 489 kts 16°
2026-05-07 20:31 40.69223 4.45198 31583 ft 488 kts 17°
2026-05-07 20:32 40.72449 4.46602 31955 ft 488 kts 17°
2026-05-07 20:32 40.75639 4.48008 32284 ft 488 kts 17°
2026-05-07 20:32 40.78862 4.49439 32611 ft 488 kts 17°
2026-05-07 20:32 40.82078 4.50873 32954 ft 488 kts 17°
2026-05-07 20:33 40.85295 4.52311 33296 ft 488 kts 17°
2026-05-07 20:33 40.88514 4.53751 33615 ft 488 kts 17°
2026-05-07 20:33 40.90646 4.54705 33812 ft 489 kts 17°
2026-05-07 20:33 40.93870 4.56148 34084 ft 489 kts 17°
2026-05-07 20:34 40.97082 4.57652 34343 ft 490 kts 19°
2026-05-07 20:34 41.00263 4.59310 34619 ft 490 kts 21°
2026-05-07 20:34 41.03414 4.61041 34877 ft 490 kts 21°
2026-05-07 20:34 41.06555 4.62798 35124 ft 490 kts 21°
2026-05-07 20:35 41.09711 4.64563 35366 ft 491 kts 21°
2026-05-07 20:35 41.12856 4.66310 35637 ft 490 kts 21°
2026-05-07 20:35 41.16004 4.68045 35905 ft 490 kts 20°
2026-05-07 20:35 41.19121 4.69751 36154 ft 489 kts 20°
2026-05-07 20:36 41.22271 4.71470 36402 ft 489 kts 20°
2026-05-07 20:36 41.25422 4.73187 36652 ft 489 kts 20°
2026-05-07 20:36 41.28564 4.74900 36909 ft 489 kts 20°
2026-05-07 20:36 41.31715 4.76619 37150 ft 488 kts 19°
2026-05-07 20:37 41.34864 4.78340 37406 ft 488 kts 19°
2026-05-07 20:37 41.38010 4.80062 37671 ft 487 kts 19°
2026-05-07 20:37 41.41144 4.81779 37917 ft 486 kts 19°
2026-05-07 20:38 41.47415 4.85221 37990 ft 488 kts 19°
2026-05-07 20:38 41.53645 4.88648 37991 ft 486 kts 19°
2026-05-07 20:39 41.59887 4.92091 37994 ft 483 kts 19°
2026-05-07 20:39 41.66097 4.95521 38000 ft 483 kts 19°
2026-05-07 20:40 41.72307 4.98956 38009 ft 490 kts 19°
2026-05-07 20:40 41.78650 5.02473 38003 ft 496 kts 19°
2026-05-07 20:41 41.85060 5.06036 37997 ft 501 kts 19°
2026-05-07 20:41 41.91518 5.09636 37992 ft 503 kts 20°
2026-05-07 20:42 41.97966 5.13238 37993 ft 504 kts 20°
2026-05-07 20:42 42.04447 5.16866 37989 ft 505 kts 20°
2026-05-07 20:43 42.10929 5.20502 37989 ft 502 kts 20°
2026-05-07 20:43 42.17369 5.24124 38000 ft 500 kts 20°
2026-05-07 20:44 42.23787 5.27738 38001 ft 504 kts 20°
2026-05-07 20:44 42.30291 5.31408 38005 ft 507 kts 20°
2026-05-07 20:45 42.36806 5.35096 37990 ft 508 kts 20°
2026-05-07 20:45 42.43309 5.38786 37984 ft 504 kts 20°
2026-05-07 20:46 42.49725 5.42434 37997 ft 503 kts 20°
2026-05-07 20:46 42.56171 5.46106 38001 ft 502 kts 20°
2026-05-07 20:47 42.62616 5.49786 37997 ft 502 kts 20°
2026-05-07 20:47 42.69071 5.53479 37998 ft 503 kts 20°
2026-05-07 20:48 42.75489 5.57160 37996 ft 503 kts 20°
2026-05-07 20:48 42.81950 5.60875 37996 ft 504 kts 20°
2026-05-07 20:49 42.88405 5.64595 37998 ft 504 kts 20°
2026-05-07 20:49 42.94861 5.68323 37995 ft 503 kts 20°
2026-05-07 20:50 43.01285 5.72041 37994 ft 503 kts 20°
2026-05-07 20:50 43.07741 5.75787 37993 ft 503 kts 20°
2026-05-07 20:51 43.14183 5.79533 37996 ft 502 kts 20°
2026-05-07 20:51 43.20624 5.83287 37989 ft 502 kts 20°
2026-05-07 20:52 43.27067 5.87051 37994 ft 502 kts 20°
2026-05-07 20:52 43.33452 5.90789 37983 ft 502 kts 20°
2026-05-07 20:53 43.39883 5.94563 37998 ft 502 kts 20°
2026-05-07 20:53 43.46334 5.98358 37995 ft 503 kts 20°
2026-05-07 20:54 43.52771 6.02153 37991 ft 502 kts 20°
2026-05-07 20:54 43.59170 6.05935 38003 ft 502 kts 20°
2026-05-07 20:55 43.65600 6.09744 37999 ft 502 kts 20°
2026-05-07 20:55 43.72035 6.13564 38000 ft 503 kts 20°
2026-05-07 20:56 43.78428 6.17369 37994 ft 502 kts 20°
2026-05-07 20:56 43.84855 6.21203 38000 ft 502 kts 20°
2026-05-07 20:57 43.91272 6.25040 38011 ft 502 kts 20°
2026-05-07 20:57 43.97685 6.28884 38017 ft 501 kts 19°
2026-05-07 20:58 44.04082 6.32727 38012 ft 500 kts 20°
2026-05-07 20:58 44.10432 6.36551 38023 ft 500 kts 20°
2026-05-07 20:59 44.16821 6.40406 38013 ft 500 kts 20°
2026-05-07 20:59 44.23214 6.44274 38011 ft 500 kts 20°
2026-05-07 21:00 44.29614 6.48156 38012 ft 500 kts 20°
2026-05-07 21:00 44.35970 6.52021 38025 ft 499 kts 20°
2026-05-07 21:01 44.42348 6.55907 38026 ft 499 kts 20°
2026-05-07 21:01 44.48727 6.59804 37987 ft 499 kts 20°
2026-05-07 21:02 44.55050 6.63676 38003 ft 498 kts 19°
2026-05-07 21:02 44.61400 6.67573 38013 ft 497 kts 19°
2026-05-07 21:03 44.67701 6.71449 37996 ft 496 kts 20°
2026-05-07 21:03 44.74030 6.75353 38014 ft 495 kts 20°
2026-05-07 21:04 44.80328 6.79248 38013 ft 493 kts 20°
2026-05-07 21:04 44.86544 6.83294 38022 ft 487 kts 21°
2026-05-07 21:04 44.89575 6.85337 38003 ft 474 kts 21°
2026-05-07 21:05 44.92522 6.87333 38022 ft 468 kts 21°
2026-05-07 21:05 44.98335 6.91248 38027 ft 463 kts 21°
2026-05-07 21:06 45.04143 6.95140 38046 ft 461 kts 21°
2026-05-07 21:06 45.09989 6.99054 38051 ft 468 kts 21°
2026-05-07 21:07 45.15940 7.03046 38054 ft 476 kts 21°
2026-05-07 21:07 45.21962 7.07101 38062 ft 481 kts 22°
2026-05-07 21:08 45.27982 7.11171 38058 ft 482 kts 22°
2026-05-07 21:08 45.34032 7.15269 38028 ft 476 kts 22°
2026-05-07 21:09 45.39982 7.19308 38031 ft 471 kts 22°
2026-05-07 21:09 45.45857 7.23301 38056 ft 469 kts 22°
2026-05-07 21:10 45.51760 7.27322 38032 ft 470 kts 22°
2026-05-07 21:10 45.57673 7.31359 38043 ft 472 kts 22°
2026-05-07 21:11 45.63574 7.35400 38060 ft 472 kts 22°
2026-05-07 21:11 45.72483 7.41517 38035 ft 473 kts 22°
2026-05-07 21:12 45.78426 7.45612 38041 ft 474 kts 22°
2026-05-07 21:12 45.84380 7.49724 38032 ft 475 kts 22°
2026-05-07 21:13 45.90329 7.53843 38023 ft 474 kts 22°
2026-05-07 21:13 45.96234 7.57938 38043 ft 474 kts 22°
2026-05-07 21:14 46.02173 7.62068 38049 ft 472 kts 22°
2026-05-07 21:14 46.08099 7.66199 38044 ft 472 kts 22°
2026-05-07 21:15 46.13965 7.70296 38027 ft 471 kts 22°
2026-05-07 21:15 46.19688 7.74306 38027 ft 471 kts 22°
2026-05-07 21:16 46.25550 7.78421 38026 ft 471 kts 22°
2026-05-07 21:16 46.31404 7.82541 38029 ft 470 kts 22°
2026-05-07 21:17 46.37286 7.86691 38037 ft 470 kts 22°
2026-05-07 21:17 46.43176 7.90853 38012 ft 471 kts 22°
2026-05-07 21:18 46.49054 7.95021 38027 ft 469 kts 22°
2026-05-07 21:18 46.54885 7.99169 38034 ft 468 kts 22°
2026-05-07 21:19 46.60726 8.03329 38049 ft 468 kts 22°
2026-05-07 21:19 46.66584 8.07508 38060 ft 468 kts 22°
2026-05-07 21:20 46.72423 8.11690 38061 ft 467 kts 22°
2026-05-07 21:20 46.77282 8.15176 38055 ft 468 kts 22°
2026-05-07 21:21 46.83137 8.19382 38052 ft 469 kts 22°
2026-05-07 21:21 46.88978 8.23591 38043 ft 467 kts 22°
2026-05-07 21:22 46.94805 8.27802 38047 ft 465 kts 22°
2026-05-07 21:22 47.00571 8.31977 38062 ft 467 kts 22°
2026-05-07 21:23 47.05436 8.35505 38061 ft 470 kts 22°
2026-05-07 21:23 47.11314 8.39780 38060 ft 475 kts 22°
2026-05-07 21:24 47.17243 8.44104 38046 ft 477 kts 22°
2026-05-07 21:24 47.23145 8.48423 38033 ft 469 kts 22°
2026-05-07 21:25 47.28961 8.52688 38041 ft 465 kts 22°
2026-05-07 21:25 47.34768 8.56954 38049 ft 464 kts 23°
2026-05-07 21:26 47.40513 8.61183 38050 ft 464 kts 23°
2026-05-07 21:26 47.46298 8.65453 38058 ft 464 kts 23°
2026-05-07 21:27 47.52075 8.69729 38082 ft 465 kts 23°
2026-05-07 21:27 47.57881 8.74037 38074 ft 467 kts 23°
2026-05-07 21:28 47.63659 8.78335 38075 ft 468 kts 23°
2026-05-07 21:28 47.69497 8.82688 38057 ft 469 kts 23°
2026-05-07 21:29 47.75348 8.87063 38061 ft 470 kts 23°
2026-05-07 21:29 47.81200 8.91449 38082 ft 471 kts 23°
2026-05-07 21:30 47.87020 8.95823 38078 ft 471 kts 24°
2026-05-07 21:30 47.92873 9.00233 38066 ft 471 kts 24°
2026-05-07 21:31 47.98717 9.04647 38072 ft 470 kts 24°
2026-05-07 21:31 48.04547 9.09062 38072 ft 469 kts 24°
2026-05-07 21:32 48.10326 9.13453 38085 ft 468 kts 24°
2026-05-07 21:32 48.16130 9.17868 38078 ft 467 kts 24°
2026-05-07 21:33 48.21846 9.22479 38083 ft 467 kts 26°
2026-05-07 21:33 48.27458 9.27308 38085 ft 466 kts 27°
2026-05-07 21:34 48.33085 9.32162 38092 ft 465 kts 27°
2026-05-07 21:34 48.38720 9.36987 38079 ft 465 kts 26°
2026-05-07 21:35 48.44334 9.41783 38084 ft 465 kts 26°
2026-05-07 21:35 48.49970 9.46605 38084 ft 465 kts 26°
2026-05-07 21:36 48.55573 9.51412 38086 ft 465 kts 27°
2026-05-07 21:36 48.61201 9.56254 38087 ft 465 kts 27°
2026-05-07 21:37 48.66841 9.61120 38078 ft 466 kts 27°
2026-05-07 21:37 48.72435 9.65959 38083 ft 466 kts 27°
2026-05-07 21:38 48.78062 9.70839 38088 ft 466 kts 27°
2026-05-07 21:38 48.83695 9.75737 38094 ft 466 kts 27°
2026-05-07 21:39 48.89323 9.80643 38096 ft 466 kts 27°
2026-05-07 21:39 48.94957 9.85568 38090 ft 466 kts 27°
2026-05-07 21:40 49.00544 9.90464 38100 ft 465 kts 27°
2026-05-07 21:40 49.06151 9.95391 38103 ft 465 kts 27°
2026-05-07 21:41 49.11767 10.00339 38106 ft 465 kts 27°
2026-05-07 21:41 49.17332 10.05254 38101 ft 464 kts 27°
2026-05-07 21:42 49.22917 10.10201 38082 ft 464 kts 27°
2026-05-07 21:42 49.28503 10.15161 38082 ft 463 kts 27°
2026-05-07 21:43 49.34081 10.20127 38085 ft 463 kts 27°
2026-05-07 21:43 49.39655 10.25102 38102 ft 464 kts 28°
2026-05-07 21:44 49.45235 10.30097 38096 ft 464 kts 28°
2026-05-07 21:44 49.50801 10.35092 38100 ft 463 kts 28°
2026-05-07 21:45 49.56317 10.40056 38099 ft 462 kts 28°
2026-05-07 21:45 49.61865 10.45061 38097 ft 462 kts 28°
2026-05-07 21:46 49.67426 10.50092 38102 ft 462 kts 28°
2026-05-07 21:46 49.72978 10.55127 38109 ft 464 kts 28°
2026-05-07 21:47 49.78565 10.60207 38089 ft 465 kts 28°
2026-05-07 21:47 49.84120 10.65274 38088 ft 466 kts 28°
2026-05-07 21:48 49.89717 10.70392 38089 ft 467 kts 28°
2026-05-07 21:48 49.95307 10.75518 38092 ft 466 kts 28°
2026-05-07 21:49 50.00900 10.80660 38089 ft 466 kts 28°
2026-05-07 21:49 50.06451 10.85779 38089 ft 465 kts 28°
2026-05-07 21:50 50.12008 10.90916 38087 ft 463 kts 28°
2026-05-07 21:50 50.17543 10.96047 38088 ft 461 kts 29°
2026-05-07 21:51 50.23043 11.01159 38091 ft 459 kts 29°
2026-05-07 21:51 50.28484 11.06230 38099 ft 458 kts 29°
2026-05-07 21:52 50.33955 11.11343 38091 ft 457 kts 29°
2026-05-07 21:52 50.36700 11.13912 37715 ft 461 kts 29°
2026-05-07 21:52 50.39442 11.16483 37361 ft 455 kts 29°
2026-05-07 21:53 50.42147 11.19025 36958 ft 450 kts 29°
2026-05-07 21:53 50.44822 11.21542 36559 ft 446 kts 29°
2026-05-07 21:53 50.47440 11.24007 36168 ft 442 kts 29°
2026-05-07 21:53 50.50074 11.26490 35756 ft 439 kts 29°
2026-05-07 21:54 50.52682 11.28952 35355 ft 435 kts 29°
2026-05-07 21:54 50.55273 11.31392 34953 ft 432 kts 28°
2026-05-07 21:54 50.57854 11.33825 34555 ft 429 kts 28°
2026-05-07 21:54 50.60412 11.36244 34153 ft 427 kts 28°
2026-05-07 21:55 50.62919 11.38620 33679 ft 424 kts 29°
2026-05-07 21:55 50.65443 11.41019 33247 ft 421 kts 29°
2026-05-07 21:55 50.67933 11.43400 32856 ft 417 kts 29°
2026-05-07 21:55 50.70408 11.45766 32457 ft 413 kts 30°
2026-05-07 21:56 50.72854 11.48103 32075 ft 409 kts 30°
2026-05-07 21:56 50.75286 11.50426 31688 ft 406 kts 30°
2026-05-07 21:56 50.77645 11.52681 31455 ft 398 kts 30°
2026-05-07 21:56 50.80019 11.54952 30959 ft 398 kts 30°
2026-05-07 21:57 50.82379 11.57213 30580 ft 395 kts 30°
2026-05-07 21:57 50.84527 11.59273 30241 ft 392 kts 30°
2026-05-07 21:57 50.86852 11.61506 29810 ft 389 kts 30°
2026-05-07 21:57 50.89155 11.63720 29427 ft 385 kts 30°
2026-05-07 21:58 50.91435 11.65915 29035 ft 380 kts 30°
2026-05-07 21:58 50.93681 11.68081 28657 ft 376 kts 30°
2026-05-07 21:58 50.95910 11.70231 28280 ft 373 kts 30°
2026-05-07 21:58 50.98107 11.72354 27897 ft 369 kts 30°
2026-05-07 21:59 51.00294 11.74468 27529 ft 366 kts 30°
2026-05-07 21:59 51.02433 11.76539 27162 ft 363 kts 30°
2026-05-07 21:59 51.04578 11.78618 26796 ft 360 kts 30°
2026-05-07 21:59 51.06710 11.80686 26426 ft 357 kts 30°
2026-05-07 22:00 51.08826 11.82741 26067 ft 355 kts 30°
2026-05-07 22:00 51.10926 11.84784 25708 ft 352 kts 30°
2026-05-07 22:00 51.13011 11.86814 25362 ft 350 kts 30°
2026-05-07 22:00 51.15089 11.88838 25008 ft 348 kts 30°
2026-05-07 22:01 51.17148 11.90846 24662 ft 346 kts 30°
2026-05-07 22:01 51.19200 11.92850 24320 ft 345 kts 30°
2026-05-07 22:01 51.21244 11.94850 23974 ft 343 kts 30°
2026-05-07 22:01 51.23227 11.96863 23747 ft 340 kts 31°
2026-05-07 22:02 51.25199 11.98917 23470 ft 337 kts 31°
2026-05-07 22:02 51.27154 12.00969 23197 ft 334 kts 31°
2026-05-07 22:02 51.29086 12.03000 22898 ft 331 kts 31°
2026-05-07 22:02 51.31002 12.05013 22553 ft 328 kts 31°
2026-05-07 22:03 51.32905 12.07011 22212 ft 326 kts 31°
2026-05-07 22:03 51.34797 12.08997 21869 ft 324 kts 32°
2026-05-07 22:03 51.36682 12.10975 21530 ft 322 kts 32°
2026-05-07 22:03 51.38552 12.12938 21188 ft 320 kts 32°
2026-05-07 22:04 51.40396 12.14874 20855 ft 320 kts 32°
2026-05-07 22:04 51.42259 12.16833 20528 ft 321 kts 32°
2026-05-07 22:04 51.44126 12.18798 20203 ft 322 kts 32°
2026-05-07 22:04 51.46004 12.20777 19874 ft 323 kts 32°
2026-05-07 22:05 51.47891 12.22765 19535 ft 324 kts 32°
2026-05-07 22:05 51.49769 12.24748 19192 ft 323 kts 32°
2026-05-07 22:05 51.51641 12.26725 18853 ft 321 kts 32°
2026-05-07 22:05 51.53482 12.28673 18507 ft 320 kts 32°
2026-05-07 22:06 51.55365 12.30666 18126 ft 319 kts 32°
2026-05-07 22:06 51.57192 12.32603 17773 ft 318 kts 32°
2026-05-07 22:06 51.59036 12.34558 17415 ft 316 kts 32°
2026-05-07 22:06 51.60868 12.36503 17090 ft 313 kts 33°
2026-05-07 22:07 51.62671 12.38419 16756 ft 311 kts 33°
2026-05-07 22:07 51.64483 12.40347 16415 ft 309 kts 33°
2026-05-07 22:07 51.65671 12.41611 16189 ft 308 kts 33°
2026-05-07 22:07 51.67460 12.43518 15865 ft 306 kts 33°
2026-05-07 22:08 51.69804 12.46018 15433 ft 304 kts 33°
2026-05-07 22:08 51.71571 12.47904 15106 ft 303 kts 33°
2026-05-07 22:08 51.72757 12.49172 14889 ft 302 kts 33°
2026-05-07 22:08 51.74473 12.51007 14575 ft 300 kts 33°
2026-05-07 22:09 51.76217 12.52874 14254 ft 299 kts 33°
2026-05-07 22:09 51.77951 12.54732 13936 ft 298 kts 34°
2026-05-07 22:09 51.79673 12.56579 13580 ft 296 kts 34°
2026-05-07 22:09 51.81386 12.58418 13236 ft 295 kts 34°
2026-05-07 22:10 51.83092 12.60251 12908 ft 293 kts 34°
2026-05-07 22:10 51.84780 12.62067 12578 ft 291 kts 34°
2026-05-07 22:10 51.86464 12.63880 12262 ft 289 kts 34°
2026-05-07 22:10 51.88109 12.65653 11957 ft 287 kts 34°
2026-05-07 22:11 51.89765 12.67438 11645 ft 285 kts 34°
2026-05-07 22:11 51.91409 12.69213 11337 ft 284 kts 34°
2026-05-07 22:11 51.93041 12.70976 11033 ft 282 kts 34°
2026-05-07 22:11 51.94679 12.72748 10728 ft 281 kts 34°
2026-05-07 22:12 51.96303 12.74505 10418 ft 280 kts 34°
2026-05-07 22:12 51.97917 12.76254 10207 ft 275 kts 34°
2026-05-07 22:12 51.99681 12.78166 9952 ft 271 kts 34°
2026-05-07 22:12 52.01243 12.79861 9645 ft 269 kts 34°
2026-05-07 22:13 52.02796 12.81549 9346 ft 268 kts 34°
2026-05-07 22:13 52.04340 12.83227 9057 ft 266 kts 34°
2026-05-07 22:13 52.05876 12.84895 8769 ft 265 kts 34°
2026-05-07 22:13 52.07405 12.86553 8481 ft 263 kts 34°
2026-05-07 22:14 52.08924 12.88205 8200 ft 262 kts 34°
2026-05-07 22:14 52.10411 12.89825 7918 ft 260 kts 34°
2026-05-07 22:14 52.11912 12.91463 7639 ft 259 kts 34°
2026-05-07 22:14 52.13335 12.93032 7372 ft 258 kts 35°
2026-05-07 22:15 52.16005 12.95966 6876 ft 256 kts 34°
2026-05-07 22:15 52.17480 12.97575 6606 ft 255 kts 34°
2026-05-07 22:15 52.18936 12.99169 6318 ft 254 kts 34°
2026-05-07 22:16 52.20401 13.00773 6039 ft 253 kts 34°
2026-05-07 22:16 52.21847 13.02359 5759 ft 252 kts 34°
2026-05-07 22:16 52.23297 13.03952 5485 ft 250 kts 34°
2026-05-07 22:16 52.24751 13.05551 5124 ft 253 kts 34°
2026-05-07 22:17 52.26205 13.07154 4836 ft 252 kts 36°
2026-05-07 22:17 52.27366 13.09251 4518 ft 250 kts 61°
2026-05-07 22:17 52.28115 13.11780 4380 ft 241 kts 66°
2026-05-07 22:17 52.28730 13.14228 4277 ft 226 kts 69°
2026-05-07 22:18 52.29387 13.17035 4149 ft 209 kts 69°
2026-05-07 22:18 52.30370 13.21260 3777 ft 194 kts 69°
2026-05-07 22:18 52.30848 13.23308 3540 ft 191 kts 69°
2026-05-07 22:19 52.31320 13.25325 3284 ft 189 kts 69°
2026-05-07 22:19 52.31788 13.27326 3022 ft 187 kts 69°
2026-05-07 22:19 52.32249 13.29294 2782 ft 184 kts 69°
2026-05-07 22:19 52.32698 13.31208 2525 ft 178 kts 69°
2026-05-07 22:20 52.33131 13.33051 2272 ft 169 kts 69°
2026-05-07 22:20 52.33538 13.34786 2055 ft 157 kts 69°
2026-05-07 22:20 52.33917 13.36399 1841 ft 146 kts 68°
2026-05-07 22:20 52.34265 13.37880 1669 ft 134 kts 68°
2026-05-07 22:21 52.34603 13.39316 1481 ft 135 kts 68°
2026-05-07 22:21 52.34942 13.40756 1269 ft 133 kts 68°
2026-05-07 22:21 52.35268 13.42162 1077 ft 133 kts 69°
2026-05-07 22:21 52.35585 13.43593 865 ft 135 kts 68°
2026-05-07 22:22 52.35920 13.44986 662 ft 133 kts 66°
2026-05-07 22:22 52.36276 13.46406 414 ft 135 kts 68°
2026-05-07 22:22 52.36614 13.47866 273 ft 141 kts 68°
2026-05-07 22:22 52.36969 13.49347 157 ft 133 kts 68°
2026-05-07 22:23 52.37180 13.50237 157 ft 61 kts 68°
2026-05-07 22:23 52.37306 13.50844 157 ft 48 kts 84°
2026-05-07 22:23 52.37291 13.51146 160 ft 13 kts 98°
2026-05-07 22:23 52.37278 13.51289 161 ft 13 kts 98°
2026-05-07 22:24 52.37225 13.51400 159 ft 14 kts 156°
2026-05-07 22:24 52.37123 13.51465 157 ft 16 kts 160°
2026-05-07 22:24 52.37033 13.51418 155 ft 16 kts 246°
2026-05-07 22:24 52.36993 13.51252 154 ft 15 kts 249°
2026-05-07 22:25 52.36955 13.51093 154 ft 15 kts 249°
2026-05-07 22:25 52.36915 13.50925 154 ft 17 kts 248°
2026-05-07 22:25 52.36874 13.50751 154 ft 16 kts 249°
2026-05-07 22:25 52.36833 13.50581 154 ft 16 kts 248°
2026-05-07 22:26 52.36805 13.50475 155 ft 7 kts 229°
2026-05-07 22:26 52.36758 13.50493 156 ft 8 kts 159°
2026-05-07 22:26 52.36736 13.50507 156 ft 0 kts 159°